• en France
  • Liste des pays
  • À 7 jours
  • Température de l'eau
  • Carte satellitaire
  • Carte météo
  • Widgets météo
  • user-avatar
    Se connecter

    Météo par heure à Vratsa

    Ce jour, 24 Novembre, Vendredi

    Heure Température Précipitation Vent Pression Humidité
    00:00 +6°C° 0 mm 1 m/s 711 mmHg 76%
    01:00 +6°C° 0 mm 1 m/s 711 mmHg 77%
    02:00 +6°C° 0 mm 1 m/s 711 mmHg 77%
    03:00 +5°C° 0 mm 1 m/s 711 mmHg 77%
    04:00 +5°C° 0 mm 1 m/s 711 mmHg 77%
    05:00 +4°C° 0 mm 0 m/s 711 mmHg 78%
    06:00 +5°C° 0 mm 1 m/s 711 mmHg 77%
    07:00 +5°C° 0 mm 1 m/s 711 mmHg 77%
    08:00 +5°C° 0 mm 1 m/s 711 mmHg 76%
    09:00 +6°C° 0 mm 0 m/s 711 mmHg 70%
    10:00 +7°C° 0 mm 0 m/s 711 mmHg 64%
    11:00 +9°C° 0 mm 0 m/s 711 mmHg 57%
    12:00 +10°C° 0 mm 0 m/s 711 mmHg 55%
    13:00 +12°C° 0 mm 1 m/s 711 mmHg 53%
    14:00 +12°C° 0 mm 1 m/s 711 mmHg 51%
    15:00 +11°C° 0 mm 1 m/s 711 mmHg 57%
    16:00 +10°C° 0 mm 1 m/s 711 mmHg 63%
    17:00 +8°C° 0 mm 1 m/s 711 mmHg 69%
    18:00 +8°C° 0 mm 1 m/s 711 mmHg 71%
    19:00 +7°C° 0 mm 1 m/s 711 mmHg 73%
    20:00 +7°C° 0 mm 1 m/s 711 mmHg 74%
    21:00 +7°C° 0 mm 1 m/s 711 mmHg 75%
    22:00 +6°C° 0 mm 1 m/s 712 mmHg 75%
    23:00 +6°C° 0 mm 1 m/s 712 mmHg 76%

    Demain, 25 Novembre, Samedi

    Heure Température Précipitation Vent Pression Humidité
    00:00 +6°C° 0 mm 1 m/s 712 mmHg 76%
    01:00 +6°C° 0 mm 1 m/s 712 mmHg 77%
    02:00 +5°C° 0 mm 1 m/s 712 mmHg 77%
    03:00 +5°C° 0 mm 1 m/s 711 mmHg 78%
    04:00 +5°C° 0 mm 1 m/s 711 mmHg 78%
    05:00 +5°C° 0 mm 1 m/s 711 mmHg 79%
    06:00 +4°C° 0 mm 1 m/s 711 mmHg 79%
    07:00 +4°C° 0 mm 1 m/s 711 mmHg 80%
    08:00 +4°C° 0 mm 1 m/s 711 mmHg 80%
    09:00 +6°C° 0 mm 1 m/s 711 mmHg 74%
    10:00 +8°C° 0 mm 1 m/s 711 mmHg 67%
    11:00 +9°C° 0 mm 1 m/s 711 mmHg 61%
    12:00 +10°C° 0 mm 1 m/s 711 mmHg 58%
    13:00 +11°C° 0 mm 1 m/s 710 mmHg 56%
    14:00 +12°C° 0 mm 2 m/s 710 mmHg 53%
    15:00 +9°C° 0 mm 2 m/s 709 mmHg 59%
    16:00 +8°C° 0 mm 2 m/s 709 mmHg 65%
    17:00 +7°C° 0 mm 2 m/s 709 mmHg 71%
    18:00 +6°C° 0 mm 2 m/s 709 mmHg 74%
    19:00 +7°C° 0 mm 1 m/s 709 mmHg 77%
    20:00 +6°C° 0 mm 1 m/s 709 mmHg 80%
    21:00 +6°C° 0 mm 1 m/s 709 mmHg 81%
    22:00 +6°C° 0 mm 1 m/s 709 mmHg 82%
    23:00 +5°C° 0 mm 1 m/s 709 mmHg 83%

    Après-demain, 26 Novembre, Dimanche

    Heure Température Précipitation Vent Pression Humidité
    00:00 +5°C° 0 mm 1 m/s 708 mmHg 84%
    01:00 +5°C° 0 mm 1 m/s 708 mmHg 85%
    02:00 +5°C° 0 mm 1 m/s 708 mmHg 85%
    03:00 +4°C° 0 mm 1 m/s 708 mmHg 85%
    04:00 +4°C° 0 mm 1 m/s 708 mmHg 86%
    05:00 +4°C° 0 mm 1 m/s 707 mmHg 86%
    06:00 +4°C° 0 mm 1 m/s 707 mmHg 85%
    07:00 +4°C° 0 mm 1 m/s 707 mmHg 85%
    08:00 +4°C° 0 mm 1 m/s 707 mmHg 85%
    09:00 +6°C° 0 mm 1 m/s 707 mmHg 79%
    10:00 +7°C° 0 mm 1 m/s 707 mmHg 73%
    11:00 +9°C° 0 mm 1 m/s 707 mmHg 66%
    12:00 +10°C° 0 mm 1 m/s 707 mmHg 63%
    13:00 +11°C° 0 mm 1 m/s 707 mmHg 60%
    14:00 +12°C° 0 mm 1 m/s 706 mmHg 56%
    15:00 +11°C° 0,1 mm 1 m/s 706 mmHg 61%
    16:00 +10°C° 0,1 mm 1 m/s 706 mmHg 66%
    17:00 +9°C° 0,1 mm 1 m/s 705 mmHg 71%
    18:00 +9°C° 0,2 mm 1 m/s 705 mmHg 74%
    19:00 +8°C° 0,2 mm 1 m/s 705 mmHg 76%
    20:00 +8°C° 0,2 mm 1 m/s 705 mmHg 79%
    21:00 +8°C° 0,2 mm 1 m/s 705 mmHg 80%
    22:00 +8°C° 0,2 mm 1 m/s 705 mmHg 81%
    23:00 +8°C° 0,2 mm 1 m/s 705 mmHg 83%

    27 Novembre, Lundi

    Heure Température Précipitation Vent Pression Humidité
    00:00 +7°C° 0,4 mm 1 m/s 705 mmHg 85%
    01:00 +7°C° 0,4 mm 1 m/s 704 mmHg 87%
    02:00 +7°C° 0,4 mm 1 m/s 704 mmHg 89%
    03:00 +6°C° 0,7 mm 1 m/s 704 mmHg 90%
    04:00 +6°C° 0,7 mm 1 m/s 704 mmHg 92%
    05:00 +6°C° 0,7 mm 1 m/s 704 mmHg 93%
    06:00 +6°C° 1,1 mm 1 m/s 704 mmHg 94%
    07:00 +6°C° 1,1 mm 1 m/s 704 mmHg 95%
    08:00 +6°C° 1,1 mm 1 m/s 704 mmHg 95%
    09:00 +5°C° 1,6 mm 2 m/s 704 mmHg 94%
    10:00 +5°C° 1,6 mm 2 m/s 705 mmHg 94%
    11:00 +5°C° 1,6 mm 2 m/s 705 mmHg 93%
    12:00 +3°C° 1,2 mm 3 m/s 705 mmHg 91%
    13:00 +3°C° 1,2 mm 4 m/s 704 mmHg 89%
    14:00 +3°C° 1,2 mm 4 m/s 704 mmHg 87%
    15:00 +1°C° 0,9 mm 5 m/s 704 mmHg 86%
    16:00 +1°C° 0,9 mm 5 m/s 705 mmHg 85%
    17:00 0°C° 0,9 mm 5 m/s 705 mmHg 84%
    18:00 0°C° 1 mm 5 m/s 705 mmHg 85%
    19:00 0°C° 1 mm 5 m/s 705 mmHg 85%
    20:00 -1°C° 1 mm 5 m/s 705 mmHg 85%
    21:00 -1°C° 1,2 mm 5 m/s 705 mmHg 86%
    22:00 -1°C° 1,2 mm 5 m/s 706 mmHg 87%
    23:00 -1°C° 1,2 mm 5 m/s 706 mmHg 87%

    28 Novembre, Mardi

    Heure Température Précipitation Vent Pression Humidité
    00:00 -1°C° 1,2 mm 5 m/s 706 mmHg 88%
    01:00 -1°C° 1,2 mm 5 m/s 706 mmHg 88%
    02:00 -2°C° 1,2 mm 4 m/s 706 mmHg 88%
    03:00 -2°C° 0,9 mm 4 m/s 706 mmHg 88%
    04:00 -2°C° 0,9 mm 4 m/s 706 mmHg 89%
    05:00 -2°C° 0,9 mm 4 m/s 706 mmHg 89%
    06:00 -2°C° 0,6 mm 4 m/s 706 mmHg 89%
    07:00 -1°C° 0,6 mm 3 m/s 706 mmHg 90%
    08:00 -1°C° 0,6 mm 3 m/s 706 mmHg 90%
    09:00 -1°C° 0,4 mm 3 m/s 706 mmHg 90%
    10:00 -1°C° 0,4 mm 3 m/s 707 mmHg 90%
    11:00 -1°C° 0,4 mm 3 m/s 707 mmHg 90%
    12:00 -1°C° 0,2 mm 3 m/s 707 mmHg 90%
    13:00 -1°C° 0,2 mm 3 m/s 706 mmHg 90%
    14:00 -1°C° 0,2 mm 3 m/s 706 mmHg 90%
    15:00 -1°C° 0,2 mm 3 m/s 706 mmHg 90%
    16:00 -1°C° 0,2 mm 3 m/s 707 mmHg 91%
    17:00 -1°C° 0,2 mm 2 m/s 707 mmHg 91%
    18:00 -1°C° 0,2 mm 2 m/s 707 mmHg 91%
    19:00 -1°C° 0,2 mm 2 m/s 707 mmHg 92%
    20:00 -1°C° 0,2 mm 2 m/s 708 mmHg 92%
    21:00 -2°C° 0,1 mm 2 m/s 708 mmHg 91%
    22:00 0°C° 0,1 mm 1 m/s 708 mmHg 91%
    23:00 0°C° 0,1 mm 1 m/s 708 mmHg 91%

    29 Novembre, Mercredi

    Heure Température Précipitation Vent Pression Humidité
    00:00 0°C° 0 mm 1 m/s 708 mmHg 91%
    01:00 0°C° 0 mm 1 m/s 708 mmHg 91%
    02:00 0°C° 0 mm 1 m/s 708 mmHg 90%
    03:00 0°C° 0 mm 1 m/s 708 mmHg 90%
    04:00 0°C° 0 mm 1 m/s 708 mmHg 89%
    05:00 0°C° 0 mm 1 m/s 708 mmHg 89%
    06:00 0°C° 0 mm 1 m/s 708 mmHg 88%
    07:00 0°C° 0 mm 1 m/s 708 mmHg 88%
    08:00 -1°C° 0 mm 1 m/s 708 mmHg 87%
    09:00 +1°C° 0 mm 1 m/s 708 mmHg 86%
    10:00 +2°C° 0 mm 1 m/s 708 mmHg 84%
    11:00 +3°C° 0 mm 1 m/s 708 mmHg 83%
    12:00 +4°C° 0 mm 1 m/s 708 mmHg 82%
    13:00 +4°C° 0 mm 1 m/s 708 mmHg 81%
    14:00 +5°C° 0 mm 1 m/s 707 mmHg 81%
    15:00 +4°C° 0 mm 1 m/s 707 mmHg 82%
    16:00 +4°C° 0 mm 1 m/s 707 mmHg 84%
    17:00 +3°C° 0 mm 1 m/s 707 mmHg 86%
    18:00 +2°C° 0 mm 1 m/s 708 mmHg 86%
    19:00 +2°C° 0 mm 1 m/s 708 mmHg 86%
    20:00 +2°C° 0 mm 1 m/s 708 mmHg 86%
    21:00 +1°C° 0 mm 1 m/s 708 mmHg 86%
    22:00 +1°C° 0 mm 1 m/s 708 mmHg 85%
    23:00 +1°C° 0 mm 1 m/s 708 mmHg 85%
    Voir plus